Flag for USA

Past Weather in Town of Melbourne Beach, Florida, USA — Yesterday and Last 2 Weeks

Now
89 °F

Passing clouds.


Feels Like: 102 °F
Forecast: 92 / 79 °F
Wind: 12 mph from East

Location: Melbourne International Airport

Current Time: Jul 16, 2019 at 6:36:31 pm

Latest Report: Jul 16, 2019 at 5:53 pm


Visibility: 10 mi

Pressure: 30.08 "Hg

Humidity: 68%

Dew Point: 77 °F

Location of Town of Melbourne BeachLocation

Past Weather in Town of Melbourne Beach — Graph

°F

Town of Melbourne Beach Temperature Yesterday

Maximum temperature yesterday: 91 °F (at 1:53 pm)
Minimum temperature yesterday: 78 °F (at 6:53 am)
Average temperature yesterday: 86 °F

High & Low Weather Summary for the Past Weeks

 TemperatureHumidityPressure
High95 °F (Jul 2, 12:53 pm)94% (Jul 6, 9:09 pm)30.15 "Hg (Jul 6, 9:09 pm)
Low75 °F (Jul 12, 4:21 am)49% (Jul 2, 12:53 pm)29.88 "Hg (Jul 8, 6:53 pm)
Average83 °F76%30.02 "Hg
* Reported Jul 1 4:53 pm — Jul 16 4:53 pm, Town of Melbourne Beach. Weather by CustomWeather, © 2019

Note: Actual official high and low records may vary slightly from our data, if they occured in-between our weather recording intervals... More about our weather records

Advertising

Town of Melbourne Beach Weather History for the Previous 24 Hours

Scroll right to see more
 ConditionsComfort  
Time TempWeatherWind HumidityBarometerVisibility
4:53 pm
Tue, Jul 16
90 °FSunny.13 mph61%30.09 "Hg10 mi
3:53 pm90 °FSunny.13 mph68%30.10 "Hg10 mi
2:53 pm92 °FPassing clouds.14 mph64%30.11 "Hg10 mi
1:53 pm90 °FScattered clouds.12 mph68%30.13 "Hg10 mi
12:53 pm90 °FScattered clouds.12 mph68%30.14 "Hg10 mi
11:53 am89 °FScattered clouds.8 mph68%30.14 "Hg10 mi
10:53 am89 °FScattered clouds.8 mph68%30.14 "Hg10 mi
9:53 am88 °FScattered clouds.8 mph70%30.13 "Hg10 mi
9:19 am87 °FPartly sunny.8 mph72%30.14 "Hg10 mi
8:53 am86 °FScattered clouds.7 mph75%30.13 "Hg10 mi
7:53 am83 °FSunny.No wind82%30.11 "Hg10 mi
6:53 am79 °FSunny.No wind88%30.10 "Hg10 mi
5:53 am79 °FClear.No wind88%30.09 "Hg10 mi
4:53 am80 °FClear.No wind87%30.08 "Hg10 mi
3:53 am80 °FClear.No wind85%30.09 "Hg10 mi
2:53 am82 °FClear.No wind79%30.09 "Hg10 mi
1:53 am84 °FClear.5 mph74%30.11 "Hg10 mi
12:53 am84 °FClear.5 mph77%30.11 "Hg10 mi
11:53 pm
Mon, Jul 15
85 °FClear.7 mph72%30.11 "Hg10 mi
10:53 pm85 °FClear.10 mph75%30.11 "Hg10 mi
9:53 pm85 °FClear.7 mph72%30.10 "Hg10 mi
8:53 pm86 °FClear.7 mph70%30.10 "Hg10 mi
7:53 pm86 °FSunny.9 mph72%30.09 "Hg10 mi
6:53 pm88 °FSunny.10 mph65%30.07 "Hg10 mi
Weather by CustomWeather, © 2019

See weather overview

LIVE PARTIAL LUNAR ECLIPSE – Watch the eclipse as it happens